Location: Newark
(58.8333°N, 23.5833°E)
Time: 21:31:03
(UTC+00:00)

A-11 Canister half - Pass Details

Date: 23 November 2019
Orbit: 1515 x 1685 km, 47.2° (Epoch: 05 December)

Event Time Altitude Azimuth Distance (km) Brightness Sun altitude
Rises 20:42:12 0° 277° (W) 4,940 12.0 -48.3°
Reaches altitude 10° 20:45:56 10° 267° (W) 3,954 11.3 -48.6°
Enters shadow 20:48:20 17° 256° (WSW) 3,411 10.8 -48.7°
Maximum altitude 20:54:00 28° 214° (SSW) 2,762 - -49.1°
Drops below altitude 10° 21:01:59 10° 160° (SSE) 3,905 - -49.6°
Sets 21:05:40 0° 150° (SSE) 4,869 - -49.8°
